GEFSGL_500_meanwind_168.txt.gz
Wind_Speed
22 23 24 24 24 23 22 21 22 21 20 19 20 20 20 21 22 22 23 23 23 23 23 24 24 24 25 25 25 25 25 25 25 26 27 28 28 29 30 31 31 31 31
22 21 21 22 21 20 20 20 20 19 18 19 19 19 19 20 21 21 21 21 22 22 22 21 22 23 24 24 25 25 25 25 25 25 25 26 27 28 29 31 31 31 31
20 19 19 18 18 17 18 18 18 17 17 18 18 18 19 20 20 20 19 20 20 20 20 20 20 21 22 22 23 24 24 25 25 26 25 26 26 28 28 30 30 30 30
18 18 17 17 17 17 18 17 16 16 16 17 17 18 18 19 19 19 19 19 18 19 19 19 20 21 21 21 22 23 23 23 24 26 26 26 27 27 28 29 29 30 29
18 17 16 16 16 17 17 16 16 15 15 15 16 16 16 16 17 17 17 17 17 18 19 19 20 20 20 20 21 22 22 23 24 25 25 25 26 27 27 28 28 29 29
18 17 16 16 16 15 15 15 15 14 14 14 15 15 15 15 16 16 16 17 18 18 18 19 19 20 20 21 21 22 23 24 25 25 26 26 26 26 27 28 29 29 29
18 17 16 16 15 14 14 14 14 13 14 14 14 14 14 15 15 16 16 17 18 18 18 19 19 20 20 20 21 22 23 23 24 24 25 25 25 24 25 26 27 28 28
16 16 15 14 14 14 14 13 14 14 14 14 14 13 13 13 14 15 16 16 17 18 18 18 19 19 20 20 20 20 21 21 22 22 23 23 23 23 24 25 26 26 27
15 14 14 13 12 12 12 12 12 12 12 12 12 12 12 12 13 14 15 15 16 16 17 17 18 18 19 19 19 20 20 20 20 21 21 21 22 22 23 24 25 25 24
14 13 13 12 12 12 11 11 12 11 11 12 12 11 12 12 13 13 13 14 14 15 15 15 16 16 16 17 18 18 18 18 18 18 19 20 20 21 22 23 23 23 24
13 12 12 11 11 11 11 11 11 11 11 11 11 12 12 12 13 13 14 13 14 14 14 15 15 15 15 15 15 15 15 16 16 17 18 18 19 19 20 21 21 22 22
11 10 10 10 10 10 11 11 10 11 11 11 11 12 13 13 14 13 14 14 14 13 14 14 14 14 14 14 14 14 15 15 15 15 16 16 17 17 17 18 19 20 21
9 9 9 9 10 10 10 11 11 11 11 12 13 13 13 14 14 13 14 14 14 14 13 13 13 14 14 14 14 14 14 14 15 15 15 15 15 16 16 17 18 19 19
9 9 9 10 10 9 10 10 11 10 11 12 13 13 13 14 14 14 15 15 15 14 13 13 13 13 14 14 14 15 15 14 15 15 14 14 14 14 15 15 16 17 18
8 8 8 9 9 9 9 10 10 11 12 12 13 13 13 14 14 14 14 15 14 14 14 14 13 13 13 14 14 14 14 14 13 13 13 13 14 14 14 14 15 16 16
7 7 8 9 9 9 10 10 10 12 12 12 13 13 13 13 14 14 14 15 15 15 14 14 13 13 14 15 14 14 14 14 13 13 13 14 14 14 14 15 15 17 18
6 6 7 8 9 9 10 10 10 11 12 12 13 13 14 14 15 15 15 15 15 15 15 15 15 14 15 15 15 15 15 15 14 14 14 14 14 15 15 15 15 16 17
5 5 7 8 9 9 10 10 11 12 13 13 13 14 15 15 16 16 16 15 15 16 16 16 16 16 16 16 16 16 16 16 16 15 16 16 15 15 16 16 16 17 17
5 5 7 8 9 10 10 11 12 13 13 13 14 15 16 16 16 17 17 16 17 17 17 17 17 16 16 16 16 17 17 17 17 17 17 17 17 17 16 17 18 18 19
5 6 7 8 9 10 11 12 13 13 13 14 15 16 16 17 17 17 17 18 18 18 18 18 17 17 17 17 17 18 18 19 19 18 17 17 17 18 18 18 18 19 19
5 6 8 9 10 11 11 12 12 12 13 14 16 17 18 18 18 18 19 19 19 19 19 19 19 19 18 18 18 19 19 19 19 19 19 18 18 19 19 19 20 19 20
6 7 8 9 10 10 11 12 12 13 14 16 17 18 18 19 19 20 20 19 19 19 19 19 19 19 19 20 20 20 20 20 20 20 20 20 20 20 20 20 20 20 21
6 7 8 8 9 10 11 13 13 14 15 17 18 19 19 20 20 21 20 19 19 20 20 21 21 21 21 21 22 21 21 21 21 21 22 22 21 21 21 22 22 22 22
6 7 8 9 10 11 12 13 14 16 17 18 18 19 20 20 21 21 21 20 21 21 22 22 22 22 22 22 22 23 23 23 22 22 22 22 22 23 23 23 23 24 24
6 8 9 10 11 12 13 14 16 17 17 18 19 19 20 21 21 21 21 21 22 22 22 22 23 23 23 23 23 24 24 24 23 24 24 24 25 25 24 24 24 25 25
7 8 9 11 11 12 14 15 16 17 18 18 19 20 20 21 21 22 22 22 23 23 23 24 24 24 25 25 25 25 25 25 25 25 25 25 25 25 25 25 26 26 27

GEFSGL_500_meanwind_174.txt.gz
Wind_Speed
24 24 22 21 21 20 20 19 19 20 20 20 20 20 20 19 19 20 20 20 20 21 21 22 22 23 22 22 23 23 24 25 25 26 27 28 28 29 30 30 31 32 32
23 22 21 20 20 19 18 17 17 17 18 18 18 18 18 17 17 16 17 18 19 19 19 20 20 22 22 22 23 23 24 25 25 25 25 27 27 28 29 30 30 31 32
22 22 21 19 18 18 18 17 17 17 17 17 17 17 16 16 16 16 16 16 17 18 18 18 19 20 20 20 21 22 23 24 24 24 24 25 26 27 28 29 29 30 31
21 22 21 19 18 18 17 16 16 16 15 15 14 14 14 15 15 14 14 15 15 16 17 18 18 18 19 19 19 20 21 22 23 23 24 24 25 25 26 28 28 29 29
20 20 20 18 17 17 16 15 15 14 14 13 13 13 13 15 15 13 14 15 16 16 17 18 18 18 18 19 20 20 22 23 23 24 24 24 25 26 27 28 29 29 29
18 17 16 16 16 16 16 16 15 14 12 12 12 12 13 14 14 13 14 15 16 16 17 18 18 19 19 19 20 21 22 22 22 23 24 25 26 27 27 28 29 29 30
16 16 16 16 15 15 15 15 13 12 12 12 11 11 12 12 13 14 14 15 15 16 17 17 18 18 18 18 18 19 20 20 21 22 23 24 25 26 26 27 28 28 30
15 15 15 14 14 13 14 13 12 11 12 11 11 11 11 12 13 13 14 15 15 16 16 17 17 17 16 17 18 18 19 18 19 20 21 22 24 25 25 26 26 27 28
14 13 13 13 12 13 12 11 11 11 11 11 11 12 12 12 13 13 14 14 14 15 15 15 15 15 15 15 16 16 16 17 17 18 19 20 21 22 22 23 24 25 25
13 12 12 12 12 11 10 10 10 10 11 11 11 12 12 13 13 13 13 14 14 14 15 15 15 15 14 14 14 15 15 16 16 16 17 18 19 19 20 21 22 23 24
12 11 11 11 11 10 10 10 10 10 11 11 11 12 11 12 12 12 13 14 14 14 14 15 14 14 13 13 13 14 14 15 15 15 16 17 18 18 19 20 21 22 24
11 11 10 10 9 9 9 9 9 10 11 11 12 12 12 12 12 12 12 13 13 14 14 14 14 14 13 14 14 14 14 14 15 15 16 16 16 17 18 19 20 21 22
10 10 9 8 8 8 8 8 8 10 10 10 11 11 11 11 11 12 12 13 14 14 14 14 14 13 13 13 14 14 14 15 15 16 16 16 17 17 18 19 19 20 20
9 8 8 7 7 8 8 8 9 9 9 10 10 11 11 12 12 12 13 13 14 15 15 14 14 13 13 14 14 14 15 15 16 16 16 17 17 17 18 18 18 19 19
7 7 7 6 6 7 8 8 9 9 10 10 11 11 12 12 12 13 13 14 14 15 15 14 13 13 14 14 14 15 15 16 16 16 16 16 17 17 18 18 18 18 19
6 6 6 6 6 7 7 8 8 9 9 10 11 11 12 12 13 14 14 15 15 15 15 15 15 15 15 15 15 15 15 16 16 17 17 18 18 19 19 19 18 18 19
5 5 5 5 5 6 7 7 7 9 10 11 11 12 12 13 14 14 14 15 15 15 15 15 15 16 15 16 16 16 17 17 17 18 18 18 18 19 19 19 19 19 20
4 4 4 4 5 5 7 7 8 9 10 11 12 12 13 13 14 14 14 15 16 15 15 16 16 17 17 17 17 18 18 18 18 17 17 18 18 19 19 19 19 19 20
3 3 4 4 5 6 7 8 8 9 11 12 12 13 13 14 15 15 15 16 16 17 17 17 17 18 18 18 18 18 18 19 18 18 18 18 19 19 19 19 19 19 20
3 4 4 5 6 7 8 9 9 10 11 12 13 14 15 15 16 17 17 17 18 18 18 18 18 18 18 19 19 19 19 19 20 19 19 19 19 19 19 19 19 19 20
3 3 4 5 6 7 8 10 10 11 12 13 15 16 17 17 17 18 18 19 19 19 19 19 19 19 19 19 20 20 20 20 20 19 19 19 19 19 20 20 19 19 19
3 4 5 6 7 7 8 10 10 11 13 14 15 16 17 17 18 18 19 19 20 20 20 20 20 20 21 21 21 21 21 21 21 20 20 20 20 20 21 21 21 21 20
3 4 5 6 7 8 9 10 11 12 13 15 16 17 17 18 19 19 20 20 20 20 20 20 20 21 22 22 22 22 22 22 21 22 21 21 22 22 22 21 22 22 23
3 4 6 7 8 9 10 11 12 13 14 15 16 17 17 18 19 20 20 21 21 21 22 21 21 22 23 23 23 23 23 22 22 22 23 23 24 24 23 23 22 23 23
3 4 6 7 8 9 10 12 13 14 15 15 16 17 18 19 20 21 21 21 22 22 22 23 23 23 23 23 24 24 24 23 22 23 24 24 24 24 24 24 24 24 24
3 4 6 8 9 9 10 12 13 14 15 16 17 18 18 20 21 21 22 22 23 23 23 24 24 24 24 24 24 24 24 24 24 24 24 24 24 25 24 24 24 24 25

GEFSGL_500_meanwind_180.txt.gz
Wind_Speed
25 24 23 22 21 22 21 22 22 21 21 21 19 19 19 20 20 21 21 21 20 20 20 21 21 22 22 23 24 24 25 25 25 24 25 27 26 26 27 28 29 29 30
24 23 23 22 21 21 21 21 21 21 20 19 18 18 18 19 19 19 19 19 19 19 19 20 20 21 21 22 22 24 25 24 24 25 26 27 27 27 27 27 28 29 29
23 22 22 21 22 21 20 19 19 19 18 18 18 18 18 19 19 18 18 18 18 18 18 18 19 20 22 22 22 23 23 23 23 23 24 25 25 26 26 26 26 27 28
21 20 20 20 20 19 19 19 18 17 17 18 18 18 18 18 18 17 17 17 17 16 16 17 19 20 21 21 22 22 23 23 24 24 24 24 25 26 26 26 26 27 27
19 19 20 19 18 17 17 18 17 17 17 18 17 17 17 17 18 17 16 16 16 16 16 17 18 19 20 20 21 22 23 23 24 23 23 24 24 25 25 26 27 27 28
20 19 19 18 18 17 16 16 16 16 17 17 17 17 16 17 17 17 16 16 17 18 18 18 19 19 19 20 20 21 21 22 23 24 24 24 24 24 24 25 26 26 27
19 19 18 18 18 17 16 16 17 17 16 16 16 15 15 16 16 16 16 16 17 18 19 20 20 19 19 20 21 21 21 21 22 23 23 23 23 24 24 24 25 25 26
18 18 18 18 17 16 16 16 16 15 14 14 15 15 14 14 15 15 16 16 17 18 19 19 20 20 21 21 21 21 20 20 20 20 20 21 22 23 23 23 23 25 25
18 17 18 17 16 15 15 15 15 14 14 14 14 15 14 14 15 16 16 16 17 18 19 19 19 20 19 19 19 18 18 18 18 18 19 19 20 21 21 22 22 24 24
17 17 17 16 15 14 14 13 13 13 13 13 14 15 15 15 15 16 17 17 18 18 19 19 19 19 18 18 17 17 16 16 16 16 18 19 20 20 21 22 22 23 23
16 16 15 14 13 13 12 11 12 13 13 14 15 15 15 16 17 17 17 18 18 17 18 18 18 18 18 17 17 16 16 16 16 17 17 18 19 19 20 21 22 22 23
15 14 13 12 12 11 11 11 11 12 12 13 14 15 15 15 16 16 17 17 17 17 17 18 18 18 18 17 17 16 15 15 16 16 17 18 19 19 19 20 20 21 22
13 12 11 11 11 11 10 10 10 11 12 14 14 14 14 15 15 15 16 16 17 17 17 17 17 18 17 17 16 16 16 16 17 17 18 19 19 19 19 20 20 20 21
12 11 10 10 10 10 10 9 10 11 12 13 14 13 14 14 16 16 16 16 17 17 17 18 18 18 18 17 17 17 17 18 18 18 18 19 19 19 19 20 20 21 21
11 10 9 9 9 9 9 9 9 11 12 13 13 13 15 16 17 17 17 17 17 17 18 18 18 18 18 18 18 18 18 18 18 18 19 19 19 19 20 20 20 21 21
11 10 9 9 9 9 9 9 9 10 12 13 13 14 15 16 17 16 16 17 17 17 18 19 18 18 18 18 18 18 18 19 19 18 18 18 19 19 19 20 20 21 22
9 9 8 8 8 9 9 9 10 10 11 12 13 14 15 16 17 17 18 18 19 19 20 20 20 19 18 19 19 19 19 20 19 20 19 19 19 19 20 20 21 22 22
8 8 8 8 8 9 9 9 9 10 12 13 13 15 16 17 17 18 19 19 19 20 20 21 21 21 21 20 20 20 20 21 21 21 21 20 20 20 21 22 22 22 22
7 7 7 7 8 9 9 10 10 11 12 13 14 15 16 17 18 19 19 20 20 21 21 21 22 21 21 21 22 22 22 22 22 22 22 22 22 22 22 22 23 23 23
7 7 7 8 9 9 10 10 11 11 12 13 14 15 17 18 19 19 20 21 21 21 21 22 22 22 22 22 22 23 23 23 23 23 23 23 24 24 23 23 24 24 24
7 6 7 8 9 9 10 11 12 12 13 14 15 16 17 18 19 19 20 21 21 21 22 22 22 22 22 22 22 22 23 23 23 23 23 23 24 25 25 24 24 24 24
6 6 7 8 9 10 10 11 11 12 14 15 16 16 17 18 19 20 21 22 22 22 22 23 23 23 23 23 23 23 22 23 23 24 24 24 24 24 24 23 23 23 24
6 6 8 8 9 10 10 11 12 13 15 16 16 17 18 19 20 20 21 22 22 23 23 24 24 24 24 24 24 23 23 23 24 24 24 24 24 23 24 24 24 24 24
5 7 7 8 9 10 11 12 13 14 15 16 17 17 18 19 20 21 21 22 23 24 24 24 24 25 25 25 25 25 25 25 25 25 25 25 25 24 24 25 25 25 25
5 6 7 8 9 10 11 12 13 14 15 16 17 18 19 19 20 21 22 23 24 25 25 25 25 26 27 27 27 26 26 26 26 26 26 26 25 24 24 25 25 25 25
5 6 7 8 8 10 11 12 13 14 16 17 17 18 19 20 21 22 23 24 25 25 26 26 27 27 28 28 28 27 27 27 28 27 26 25 25 25 25 25 25 25 25

GEFSGL_500_meanwind_186.txt.gz
Wind_Speed
24 23 21 20 20 19 20 19 19 19 19 19 19 18 18 18 19 19 19 20 20 20 20 21 21 21 22 22 23 23 24 25 26 26 27 27 28 29 30 29 29 30 31
23 23 21 20 19 19 19 19 19 18 18 18 18 18 17 17 18 18 18 18 19 19 20 20 21 21 22 22 22 22 23 24 25 25 26 26 27 28 29 29 30 30 30
23 22 20 19 19 19 18 18 18 18 18 17 17 17 17 18 18 17 17 17 18 18 19 19 20 19 20 21 21 22 23 24 24 25 25 25 26 28 28 29 29 30 30
21 20 20 19 18 17 17 17 17 17 17 17 17 17 17 17 17 16 16 17 17 18 18 19 19 18 19 20 21 21 22 23 24 24 24 24 25 26 27 28 29 29 29
20 19 20 19 18 18 18 17 17 17 17 16 16 16 16 16 15 15 16 16 17 17 17 18 19 18 18 18 19 20 21 22 23 23 24 24 24 24 25 27 28 28 28
19 19 19 18 18 17 17 17 16 17 16 16 15 15 15 15 14 15 15 16 16 16 16 17 17 17 18 18 18 19 19 21 22 23 23 24 24 25 25 25 26 27 27
19 17 17 17 17 17 16 16 16 16 15 14 14 14 15 14 14 14 15 16 16 16 17 17 17 17 17 17 18 19 20 20 21 22 22 23 24 24 24 24 25 26 26
16 15 15 16 16 16 15 16 16 15 13 12 12 14 14 13 13 14 15 16 17 17 18 18 18 18 18 18 19 19 19 19 20 20 20 21 22 23 23 23 23 24 25
15 14 14 15 15 15 15 15 14 13 12 12 13 13 13 12 13 14 16 16 16 17 18 18 18 18 18 18 18 19 18 18 18 19 19 20 20 22 23 23 23 24 24
15 12 12 13 13 14 14 13 12 11 11 11 11 11 12 13 14 15 15 15 16 16 17 17 17 17 18 18 18 17 17 17 18 18 18 18 19 20 21 22 23 23 24
13 11 11 12 13 12 12 12 10 10 11 11 11 11 12 13 14 15 15 16 16 16 16 16 17 17 18 18 17 16 16 16 16 16 16 16 17 18 20 21 22 22 23
12 10 10 11 11 11 11 11 10 10 10 11 11 12 13 14 14 14 15 16 16 17 17 17 17 17 17 17 16 16 15 15 15 16 16 17 17 18 19 20 21 21 22
10 9 10 10 10 11 12 11 10 9 10 11 11 12 13 14 14 14 16 17 17 17 17 17 18 17 17 17 17 16 16 16 15 16 17 17 18 18 19 20 20 20 21
8 9 9 9 10 11 11 10 10 9 10 11 12 12 13 13 14 15 16 17 17 17 17 17 18 17 18 17 17 16 16 17 17 17 17 18 18 19 19 20 20 21 22
7 8 8 8 8 9 9 9 9 10 11 11 11 12 13 14 14 15 16 16 17 17 18 17 18 18 18 17 17 17 17 17 17 17 18 18 18 19 19 19 20 21 22
6 6 6 6 7 8 8 9 9 10 11 12 12 13 13 14 14 15 16 17 18 18 18 18 18 18 18 18 17 17 17 18 18 18 18 18 19 19 19 19 19 20 21
6 6 6 6 7 8 9 9 9 10 10 11 12 13 13 13 14 15 16 17 18 19 18 18 19 19 19 19 19 18 18 19 19 19 19 19 19 20 20 20 20 20 22
5 5 6 6 7 8 9 9 9 9 10 11 13 13 13 13 14 15 16 17 18 19 19 19 20 20 20 20 19 19 20 20 20 21 20 20 20 21 21 21 21 22 22
5 6 6 7 7 8 9 10 10 10 11 11 12 12 13 13 14 15 16 17 18 19 20 21 22 22 21 21 20 20 20 21 21 21 21 21 21 21 21 22 22 22 22
5 6 6 6 7 8 9 10 11 11 11 11 12 13 14 14 15 15 16 18 19 20 21 22 23 23 22 22 21 21 21 21 22 22 21 21 21 22 22 22 22 22 22
5 5 6 6 7 8 9 10 10 11 11 12 13 14 15 16 16 17 17 18 19 20 21 23 23 23 23 22 22 21 22 22 22 22 21 21 21 22 22 22 21 21 22
5 5 5 7 8 9 9 9 10 11 11 12 12 14 15 16 16 17 18 19 20 21 22 23 24 24 24 23 23 22 22 23 23 23 23 22 22 21 21 21 21 21 21
5 5 6 7 8 9 9 9 10 10 11 12 12 13 15 16 17 17 18 19 20 21 22 23 24 25 25 24 24 23 23 23 23 23 23 22 21 21 21 21 22 21 22
4 5 6 7 8 8 9 9 9 10 11 11 12 13 15 16 17 18 19 20 20 21 22 23 24 25 26 26 26 26 25 25 24 23 23 23 22 21 21 21 22 22 22
5 5 6 7 8 8 8 9 10 11 12 12 12 14 15 16 17 18 19 20 21 22 23 24 25 25 26 27 27 27 27 26 25 24 23 23 22 22 21 22 22 23 23
5 5 6 7 8 8 8 9 10 11 12 12 12 13 15 16 17 18 20 20 21 22 23 24 25 26 27 28 28 28 27 26 25 24 23 23 23 22 22 22 23 23 23

GEFSGL_500_meanwind_192.txt.gz
Wind_Speed
25 25 25 24 23 21 19 19 18 18 20 20 19 20 20 19 19 19 20 20 21 21 22 22 23 24 24 24 24 24 25 26 28 29 30 30 31 31 32 32 33 34 34
24 24 23 21 20 20 20 18 17 18 18 18 18 18 18 18 18 19 20 21 21 21 21 22 22 23 23 23 24 24 25 26 27 27 29 30 30 30 31 32 32 33 33
24 24 23 21 20 19 19 18 18 18 18 18 18 18 18 18 18 19 20 21 21 22 22 22 21 22 22 22 23 23 23 24 25 25 26 27 28 29 29 30 31 32 32
23 24 23 21 20 20 19 18 17 17 18 18 18 18 19 19 19 19 20 20 20 21 22 21 20 21 21 22 22 22 22 22 23 23 24 25 26 26 27 29 30 31 31
23 23 22 21 19 18 18 17 16 17 17 17 17 18 19 19 18 19 19 20 20 21 20 20 19 20 20 21 22 22 22 22 22 22 23 23 24 25 25 27 28 29 30
21 20 20 20 18 18 17 16 16 16 16 17 18 18 18 18 18 18 18 19 19 18 18 17 18 19 20 21 21 22 22 21 20 20 21 22 23 23 24 26 27 28 28
20 19 19 18 16 16 16 15 15 14 15 16 16 17 17 16 16 17 18 18 18 17 17 17 18 19 20 20 20 21 21 21 20 20 20 20 20 21 22 24 26 27 27
20 18 17 16 16 16 15 14 13 13 13 14 15 15 15 15 15 16 17 17 16 17 17 18 19 20 20 20 21 21 20 20 20 19 19 20 20 20 21 23 24 25 27
19 18 17 16 16 15 14 13 13 13 13 14 14 14 15 15 16 16 16 16 16 17 18 19 19 19 19 20 20 19 19 19 20 19 19 20 20 21 21 22 23 24 25
18 17 16 16 16 14 13 13 12 12 13 13 13 14 14 15 15 16 16 16 17 18 18 19 19 19 19 19 19 18 18 18 19 19 19 19 20 21 21 22 23 24 24
17 17 16 16 15 14 13 12 12 12 12 13 14 14 14 15 15 15 16 17 18 18 19 19 19 19 19 18 17 17 17 17 18 18 18 18 19 20 21 21 21 21 21
17 16 15 14 14 13 11 11 11 12 13 13 13 14 15 15 15 16 17 18 18 19 19 20 20 19 19 18 18 17 17 17 17 17 17 18 18 18 19 19 20 20 20
16 15 14 13 12 12 11 10 11 12 12 13 13 14 14 15 16 16 17 17 17 17 18 19 19 19 19 18 18 17 17 17 17 16 17 18 18 19 19 19 19 19 20
13 13 12 11 10 10 9 10 11 11 12 13 13 13 14 15 15 15 16 16 17 17 18 18 19 19 19 19 19 19 18 18 18 17 18 18 19 19 19 19 19 19 19
12 12 10 10 10 9 9 10 11 11 13 13 13 13 14 14 14 14 15 15 16 17 17 18 18 19 19 19 19 19 19 19 18 18 18 18 18 18 19 19 20 20 20
10 10 9 8 8 9 9 10 11 12 13 13 13 13 13 13 14 14 15 16 17 17 17 18 18 19 19 20 20 19 19 19 19 19 19 19 19 18 19 20 20 20 20
9 9 8 8 9 9 9 10 11 12 13 14 14 14 14 14 15 15 15 15 16 17 18 18 18 19 20 21 20 20 20 20 20 20 19 19 19 19 19 20 20 20 21
10 9 8 8 9 9 10 11 11 11 12 13 13 14 14 15 15 15 15 15 17 18 18 19 19 20 20 21 21 21 21 21 21 20 20 19 19 20 20 20 20 21 21
9 8 7 8 8 9 10 11 11 12 13 13 13 14 15 15 15 15 15 16 17 18 19 19 19 19 20 21 22 22 22 22 22 21 21 20 20 20 20 20 21 21 22
7 7 7 7 8 9 10 11 11 13 13 13 13 14 14 15 15 15 16 17 18 18 18 19 20 20 21 22 22 22 22 23 23 22 22 21 21 21 21 21 20 21 22
6 7 7 7 8 9 10 11 12 13 13 13 14 14 14 14 15 16 17 18 18 19 19 20 21 21 22 22 22 22 23 23 24 23 23 22 21 21 21 21 21 21 21
7 7 7 7 9 10 11 12 12 13 12 13 14 14 14 15 16 17 17 17 18 19 20 21 22 23 22 22 22 23 23 24 24 24 24 23 22 22 21 21 22 21 21
7 7 8 8 10 11 11 12 12 13 13 13 13 13 14 15 16 17 18 18 19 19 21 22 23 24 23 23 23 23 24 24 24 24 24 24 23 22 21 21 21 21 21
8 8 8 10 10 11 11 12 12 12 12 13 13 13 14 14 16 17 18 19 20 20 22 23 24 24 24 24 24 24 25 25 25 25 24 24 23 22 22 21 21 21 21
8 8 9 10 10 10 11 11 11 11 11 12 13 14 14 15 16 17 18 19 20 21 22 23 23 24 24 25 25 25 25 25 25 24 24 23 23 22 22 22 22 22 21
8 8 8 9 9 10 10 11 11 10 11 12 13 14 14 15 16 17 18 19 20 21 23 23 24 24 24 25 25 26 25 25 25 25 24 24 23 23 23 23 22 22 21

GEFSGL_500_meanwind_198.txt.gz
Wind_Speed
26 26 26 24 23 23 22 21 20 19 19 19 19 18 18 18 19 20 21 21 21 22 23 23 24 24 24 24 25 26 27 28 28 28 29 30 30 30 30 32 33 34 35
26 25 24 22 22 21 21 20 20 20 20 19 19 19 18 18 19 20 20 21 21 22 23 24 24 24 23 23 24 26 27 28 28 27 27 28 29 28 28 29 31 32 32
23 22 21 20 19 19 19 19 19 20 19 19 19 19 18 18 18 19 19 20 21 22 23 24 24 23 23 23 24 25 26 27 27 27 26 26 26 27 27 28 29 30 31
22 21 20 20 19 18 18 18 19 19 19 19 18 18 17 17 18 18 19 19 20 20 21 22 23 23 23 24 24 24 25 25 25 24 24 25 26 27 28 28 28 29 30
21 21 20 18 18 18 18 18 19 19 18 18 17 17 17 17 17 18 18 19 18 19 19 20 21 21 22 23 22 22 23 23 23 24 24 25 25 26 28 28 28 28 29
20 19 19 18 17 17 18 18 18 18 17 16 16 16 16 16 16 16 17 17 17 17 18 18 19 19 20 21 21 21 22 22 22 22 23 24 24 24 25 26 27 28 29
19 19 18 17 17 17 17 17 17 16 16 15 14 15 15 15 15 16 15 15 16 16 17 18 19 19 19 19 19 20 20 20 20 21 21 21 22 21 21 23 25 26 27
18 17 16 16 15 15 15 15 15 15 14 13 13 13 13 14 14 14 15 15 16 17 18 18 19 19 18 18 18 18 18 18 18 18 18 19 19 19 20 20 22 22 23
18 17 15 15 14 14 14 14 13 13 13 12 12 11 12 12 12 13 14 14 15 16 17 17 17 17 17 17 17 17 17 16 16 17 17 17 17 18 19 19 20 21 21
16 15 14 14 15 14 14 13 13 12 12 11 11 11 11 11 12 12 13 14 14 15 16 16 16 16 16 16 16 16 16 16 16 16 16 16 17 18 19 20 21 22 22
16 15 14 14 14 14 14 13 12 12 11 10 10 10 10 11 11 12 12 13 15 15 15 16 15 15 16 16 16 16 16 16 15 15 16 16 17 18 19 20 21 22 22
15 14 14 13 13 13 13 12 12 11 9 9 9 10 10 11 12 12 13 13 14 14 14 14 15 16 16 16 16 16 15 15 15 15 16 16 17 18 18 19 19 19 20
14 14 13 13 12 12 12 11 10 8 8 8 9 10 11 12 12 12 13 13 13 13 13 14 15 16 16 16 16 16 16 16 16 15 15 15 16 17 17 17 18 19 19
13 13 13 13 12 11 11 10 9 8 8 8 9 10 11 11 12 12 12 12 13 13 13 14 15 16 16 16 17 17 17 17 16 16 16 16 16 17 17 18 19 19 20
13 12 12 12 11 10 10 9 9 8 8 9 10 11 11 11 12 12 12 12 12 13 14 15 15 16 16 16 17 17 18 18 18 17 17 16 16 17 17 18 19 20 21
11 11 11 10 9 9 9 9 9 10 10 10 10 10 11 12 12 12 12 12 13 14 14 15 15 16 16 16 17 18 18 18 18 18 17 17 17 17 18 18 18 19 20
12 11 10 9 8 9 9 10 9 10 11 11 11 10 11 12 12 12 12 13 13 14 14 15 15 16 16 17 17 17 18 18 18 18 18 17 18 18 18 17 17 18 19
12 11 9 8 8 9 9 10 10 10 11 11 12 11 11 12 12 12 12 13 14 14 15 16 16 17 17 17 16 17 18 18 18 18 19 18 18 18 18 18 18 19 18
12 10 8 8 8 9 9 9 9 10 10 11 12 11 11 12 11 12 13 14 15 15 16 16 17 17 16 16 16 17 18 18 19 19 19 19 19 18 18 18 18 19 19
10 9 8 8 8 8 8 9 9 9 10 11 11 11 12 12 12 12 13 14 15 15 16 16 17 16 16 16 16 17 18 18 19 19 19 19 19 19 19 19 19 19 19
9 9 8 8 8 9 9 9 9 10 10 11 11 11 12 12 12 12 13 13 14 15 16 16 17 17 17 16 17 17 18 19 19 19 19 19 19 19 19 19 19 19 19
9 9 8 8 8 9 10 10 9 10 10 10 10 11 11 11 12 12 13 13 14 15 16 17 17 18 18 17 18 18 19 19 20 20 20 20 20 19 19 20 20 20 19
9 9 9 9 9 9 9 9 10 10 11 11 10 11 11 11 12 13 13 14 14 15 16 17 17 18 19 19 19 19 20 20 20 20 20 20 20 20 20 20 20 20 19
10 10 10 10 9 9 9 9 10 10 10 10 10 10 11 11 12 13 14 14 15 16 17 17 18 19 19 20 20 20 20 21 21 20 21 21 20 20 20 20 20 20 19
10 10 9 9 9 9 9 9 10 10 9 9 9 10 11 11 12 13 14 15 15 16 17 18 18 18 19 20 20 20 20 21 21 21 21 21 21 21 20 20 20 20 19
10 9 9 9 9 9 9 9 8 8 8 8 9 10 11 11 12 13 14 15 16 16 17 18 19 19 19 20 20 21 21 21 21 21 21 21 21 21 21 20 20 20 19

GEFSGL_500_meanwind_204.txt.gz
Wind_Speed
24 23 23 22 22 23 23 22 21 21 21 20 20 20 21 20 20 21 22 22 21 21 22 23 24 24 24 25 26 27 27 28 28 28 27 28 28 27 27 27 27 28 29
24 23 22 22 22 22 22 21 21 20 20 20 20 20 20 20 21 21 22 21 21 21 22 23 23 23 24 24 26 26 26 26 27 26 26 26 26 26 25 26 26 27 29
24 24 23 22 22 21 20 19 19 19 19 19 19 19 20 20 21 21 21 20 20 21 22 21 21 22 22 23 24 24 24 25 25 25 25 24 24 25 25 26 26 27 28
24 24 24 23 21 19 18 17 18 18 18 17 18 19 19 19 20 20 20 20 20 20 20 20 20 20 21 21 22 23 23 23 24 24 24 24 24 24 24 25 25 26 27
24 24 23 21 19 18 17 17 17 17 17 18 18 18 18 18 19 19 19 19 18 17 18 18 18 19 20 20 22 22 22 22 22 22 23 22 22 22 23 24 24 24 25
23 22 22 21 18 17 16 15 15 16 17 17 17 17 17 17 17 17 17 16 16 16 16 17 17 18 19 19 20 21 21 21 21 21 21 21 21 20 21 22 23 23 24
22 21 21 20 18 17 16 15 15 16 16 17 17 16 16 16 16 16 15 15 15 15 15 15 16 17 18 19 19 19 19 19 19 20 20 20 20 20 20 21 22 23 23
21 20 19 19 17 16 15 15 14 15 16 16 16 15 15 14 14 13 14 14 14 14 15 15 16 17 18 18 17 18 18 18 18 18 19 20 20 20 20 21 22 22 23
20 18 18 18 16 15 15 15 15 15 15 15 15 14 13 13 13 13 13 13 14 14 14 15 16 17 17 17 17 17 17 17 16 17 18 19 19 19 19 19 20 21 21
19 18 18 17 16 16 15 14 15 15 15 14 13 12 12 12 12 12 13 13 14 13 14 15 16 16 16 16 16 16 16 16 16 15 16 17 17 18 17 18 19 20 20
19 18 17 16 16 15 14 14 14 14 13 13 12 12 12 12 12 12 13 13 13 14 14 15 15 15 15 15 15 16 16 16 16 16 16 16 17 17 17 17 18 19 19
18 17 16 16 15 15 14 13 13 13 13 12 12 12 12 12 12 12 13 13 13 14 15 15 14 14 15 14 14 15 15 16 16 16 15 15 16 17 17 18 18 19 19
18 17 16 15 14 14 13 12 12 12 12 11 11 11 12 12 12 13 13 13 13 14 15 15 14 14 14 14 15 15 16 16 16 16 16 16 16 17 17 17 17 18 19
16 16 15 15 14 13 12 12 12 11 11 11 12 12 13 13 12 12 13 13 14 14 15 14 14 14 15 15 15 15 15 16 16 17 17 17 18 17 17 17 17 18 18
15 15 15 14 12 12 12 12 12 12 12 12 12 13 14 14 14 13 13 12 13 14 14 14 14 14 15 15 15 15 16 16 17 17 18 17 17 17 17 17 18 18 18
14 14 13 12 12 12 12 12 11 11 11 12 13 14 14 15 14 13 13 13 13 13 14 15 15 15 15 15 15 16 16 17 17 18 18 18 17 17 17 18 18 19 19
14 14 13 13 12 12 12 11 11 11 12 12 13 15 15 15 14 14 14 13 13 13 13 15 16 16 16 15 15 16 16 17 18 18 19 19 18 18 18 18 19 19 19
15 14 14 13 13 12 11 11 12 12 13 12 13 14 14 14 15 15 14 13 13 13 13 15 16 16 16 15 16 16 17 18 19 20 20 19 19 18 18 19 19 18 18
15 15 14 13 12 12 11 12 12 13 13 12 12 12 14 14 14 14 14 14 13 13 14 15 15 16 16 16 16 17 18 18 19 19 19 19 19 18 19 19 19 19 18
15 15 13 13 12 12 11 11 11 11 12 12 12 13 14 14 14 14 14 14 13 13 14 14 15 16 17 17 18 18 18 18 18 19 20 20 20 19 19 20 19 19 19
14 14 13 13 12 12 11 11 10 10 11 12 13 14 14 13 14 14 14 14 13 14 14 14 15 16 18 19 19 19 19 19 19 19 20 20 20 20 20 20 20 20 20
14 14 14 13 13 12 12 11 10 11 11 11 12 12 12 12 13 14 14 14 14 14 14 15 16 17 18 20 19 18 19 20 20 20 20 20 21 20 20 21 21 20 20
15 14 14 13 13 12 12 11 11 11 10 11 11 11 12 13 13 13 14 14 14 14 15 15 16 17 18 19 19 19 20 20 21 21 21 21 21 21 21 21 21 20 20
14 14 14 14 13 12 11 11 10 10 10 11 11 11 12 12 13 13 13 13 14 15 15 15 17 17 18 19 19 19 20 20 21 22 22 21 21 21 21 21 21 21 21
14 13 13 13 12 11 11 11 10 10 11 11 10 11 11 12 12 13 13 13 14 14 15 16 17 18 18 18 18 19 21 22 22 22 22 21 21 21 21 21 21 21 21
14 13 12 12 12 11 11 11 11 11 11 10 10 10 10 12 12 13 13 13 13 14 15 16 17 18 18 19 20 20 21 22 22 23 22 22 21 21 21 22 22 21 21

GEFSGL_500_meanwind_210.txt.gz
Wind_Speed
26 23 21 20 19 19 18 17 17 17 17 17 17 17 17 17 18 18 18 18 19 20 21 20 19 19 20 21 21 22 22 23 23 24 25 25 26 26 27 27 29 30 31
24 23 20 19 18 18 17 17 16 16 15 16 16 17 17 16 16 17 17 17 18 19 19 18 18 17 17 18 19 20 21 21 21 22 22 23 24 25 26 26 27 28 30
23 21 19 18 18 17 16 16 15 14 14 15 15 16 15 15 16 16 17 18 19 19 19 17 17 17 17 18 18 18 19 20 20 20 21 22 23 25 25 27 27 28 29
22 20 19 18 17 17 15 14 14 13 13 13 13 14 14 15 16 16 17 17 18 18 17 16 16 17 17 16 17 18 18 19 19 20 21 21 22 23 24 25 26 27 27
22 20 19 18 17 16 15 14 14 13 13 12 12 13 13 14 15 15 16 15 16 16 15 15 15 15 15 16 17 18 18 19 19 20 20 20 20 21 22 23 24 25 26
21 20 18 17 17 16 15 13 13 14 13 12 13 13 13 13 14 14 15 15 15 14 14 14 14 14 15 16 17 17 18 18 19 19 19 19 19 20 21 23 23 23 24
21 19 18 17 16 15 15 13 13 12 12 12 12 12 13 13 13 14 14 14 13 13 13 14 14 14 14 15 16 16 17 18 18 18 18 18 19 19 20 21 22 23 23
20 19 18 16 14 14 14 14 13 13 12 10 11 12 12 13 13 14 14 13 13 13 13 13 13 14 14 15 15 16 16 17 17 17 17 17 17 18 19 19 21 21 23
18 17 17 15 15 15 15 14 13 12 11 10 12 12 12 12 13 13 13 13 13 12 13 13 13 14 14 15 15 15 16 16 17 17 17 17 18 18 18 19 19 20 21
17 16 15 15 15 15 15 14 13 13 13 13 13 13 12 12 13 13 12 12 12 12 13 13 13 13 14 14 15 15 16 16 16 17 18 18 18 19 18 18 18 19 20
16 15 15 16 16 16 15 14 14 14 14 14 13 13 13 13 13 12 12 12 12 12 12 12 13 13 14 14 15 15 15 16 16 18 18 18 18 18 18 18 18 18 18
16 16 17 17 17 16 15 15 15 15 15 14 14 14 13 13 13 12 12 12 12 12 12 13 13 13 13 14 14 15 15 16 17 18 18 18 17 17 17 17 17 17 17
17 17 17 17 16 15 15 14 15 15 15 15 15 15 14 13 13 12 12 11 11 12 12 12 12 12 13 14 15 15 15 16 17 17 17 17 17 16 16 17 18 18 18
17 17 17 16 15 14 14 14 15 15 15 15 14 14 13 12 12 12 11 11 11 11 11 12 12 13 14 15 15 15 15 16 17 17 18 17 17 16 16 17 18 18 18
16 16 16 15 15 15 15 15 15 16 15 14 13 12 12 11 11 11 11 11 10 10 10 12 13 13 14 15 15 16 16 16 17 17 17 18 17 16 17 17 18 18 18
16 16 15 15 15 15 14 14 14 14 13 12 11 10 11 10 10 10 11 11 10 10 11 12 14 14 15 15 15 15 16 16 16 16 16 17 16 16 16 17 17 18 18
17 17 16 16 15 14 14 13 12 11 11 10 10 10 10 10 10 10 10 9 10 11 12 13 13 14 15 15 15 15 15 15 15 15 16 16 16 16 16 17 17 18 18
18 17 17 16 15 14 13 12 11 10 10 10 10 10 9 10 10 10 10 9 9 10 12 12 13 14 14 14 14 15 15 15 16 16 16 16 17 17 17 17 18 18 18
17 17 16 16 15 14 12 11 10 10 10 10 10 9 9 10 10 9 9 10 10 10 11 13 13 13 14 14 15 15 16 16 16 16 16 17 17 18 18 18 18 18 18
17 16 16 15 14 13 12 11 11 11 10 10 10 9 9 9 9 9 9 10 11 12 12 13 14 14 14 15 15 16 16 16 16 16 17 17 17 17 18 18 18 18 18
16 15 15 14 13 12 12 12 12 12 11 10 10 9 9 9 9 9 10 11 12 12 13 14 15 14 15 16 16 16 16 16 16 16 16 17 17 17 17 17 18 18 18
15 15 14 14 13 13 12 12 12 12 11 11 10 10 9 9 10 10 11 12 12 12 13 14 15 15 16 16 17 16 17 17 17 16 16 17 17 17 17 17 18 18 18
14 14 15 14 14 13 12 12 11 11 10 10 10 10 9 9 9 10 11 12 13 13 14 15 15 16 16 17 17 17 17 17 16 16 17 17 17 17 18 18 18 18 18
15 15 15 15 14 13 12 11 10 10 10 9 9 8 8 9 10 11 12 12 13 13 14 15 15 15 16 16 17 17 17 17 16 16 16 17 17 18 18 18 19 18 18
15 15 15 15 14 12 11 10 10 10 9 9 8 8 8 9 10 11 11 11 12 13 13 14 15 15 15 15 16 16 16 16 15 16 16 16 17 17 17 17 17 18 18
15 15 15 15 14 12 11 10 10 10 9 9 9 9 9 9 10 11 10 11 12 12 13 14 14 14 14 15 16 16 16 16 16 16 16 16 16 17 17 17 17 17 18